Location: Narrabri
(30.3170°S, 149.7830°E)
Time: 09:20:28
(UTC+10:00)

Hubble Space Telescope - Visible Passes

Search period start: 18 August 2017 00:00
Search period end: 28 August 2017 00:00
Orbit: 538 x 542 km, 28.5° (Epoch: 17 August)

Date Brightness Start Highest point End Pass type
(mag) Time Alt. Az. Time Alt. Az. Time Alt. Az.
18 Aug 1.3 18:40:53 10° W 18:44:58 53° N 18:47:25 22° ENE visible
18 Aug 4.0 20:22:36 10° WNW 20:22:47 11° WNW 20:22:47 11° WNW visible
19 Aug 1.6 18:30:49 10° W 18:34:51 47° NNW 18:38:07 15° ENE visible
19 Aug 3.8 20:12:50 10° WNW 20:13:30 13° WNW 20:13:30 13° WNW visible
20 Aug 1.9 18:20:47 10° W 18:24:43 40° NNW 18:28:38 10° NE visible
20 Aug 3.6 20:03:16 10° WNW 20:04:17 13° NW 20:04:17 13° NW visible
21 Aug 2.2 18:10:46 10° W 18:14:34 34° NNW 18:18:21 10° NE visible
21 Aug 3.6 19:54:17 10° NW 19:55:10 11° NNW 19:55:10 11° NNW visible
22 Aug 2.6 18:00:48 10° W 18:04:24 28° NNW 18:08:00 10° NE visible
